[TLELIST] Archives

 

[TLELIST] Current TLEs

November 21st 2024 PDT

HST 1 20580U 90037B 24325.52999159 .00010205 00000-0 43583-3 0 9993 2 20580 28.4702 15.2167 0001679 304.5716 55.4719 15.21197547700832 ISS (ZARYA) 1 25544U 98067A 24326.35726794 .00017588 00000-0 31775-3 0 9995 2 25544 51.6415 256.7221 0007502 251.4442 252.7664 15.49771356482920 CXO 1 25867U 99040B 24326.52387355 .00000571 00000-0 00000-0 0 9998 2 25867 44.7729 141.3483 8721311 304.3692 359.8417 0.37806941 15154 ...Continue Reading

[TLELIST] Current TLEs

November 20th 2024 PDT

HST 1 20580U 90037B 24324.48028315 .00008859 00000-0 37749-3 0 9993 2 20580 28.4701 22.2868 0001652 290.1584 69.8832 15.21176223700676 ISS (ZARYA) 1 25544U 98067A 24325.05772537 -.00616992 00000-0 -11832-1 0 9993 2 25544 51.6408 263.1527 0007793 241.4078 207.7442 15.49574119482729 CXO 1 25867U 99040B 24326.52387355 .00000571 00000-0 00000-0 0 9998 2 25867 44.7729 141.3483 8721311 304.3692 359.8417 0.37806941 15154 ...Continue Reading

[TLELIST] Current TLEs

November 19th 2024 PDT

HST 1 20580U 90037B 24324.21785374 .00008868 00000-0 37795-3 0 9990 2 20580 28.4702 24.0539 0001663 286.1909 73.8502 15.21171651700893 ISS (ZARYA) 1 25544U 98067A 24324.20355804 .00019534 00000-0 34966-3 0 9995 2 25544 51.6393 267.3909 0007362 234.9623 125.0676 15.49957044482595 CXO 1 25867U 99040B 24326.52387355 .00000571 00000-0 00000-0 0 9998 2 25867 44.7729 141.3483 8721311 304.3692 359.8417 0.37806941 15154 ...Continue Reading

[TLELIST] Current TLEs

November 18th 2024 PDT

HST 1 20580U 90037B 24322.90569541 .00008116 00000-0 34538-3 0 9998 2 20580 28.4700 32.8909 0001696 268.8069 91.2330 15.21149232700690 ISS (ZARYA) 1 25544U 98067A 24323.23641665 .00015918 00000-0 28694-3 0 9993 2 25544 51.6394 272.1811 0007335 231.4765 128.5566 15.49919217482441 CXO 1 25867U 99040B 24323.87927738 .00000571 00000-0 00000-0 0 9998 2 25867 44.7074 141.5385 8725615 304.2436 359.8848 0.37806582 15144 ...Continue Reading

[TLELIST] Current TLEs

November 18th 2024 PDT

HST 1 20580U 90037B 24322.90569541 .00008116 00000-0 34538-3 0 9998 2 20580 28.4700 32.8909 0001696 268.8069 91.2330 15.21149232700690 ISS (ZARYA) 1 25544U 98067A 24323.23641665 .00015918 00000-0 28694-3 0 9993 2 25544 51.6394 272.1811 0007335 231.4765 128.5566 15.49919217482441 CXO 1 25867U 99040B 24323.87927738 .00000571 00000-0 00000-0 0 9998 2 25867 44.7074 141.5385 8725615 304.2436 359.8848 0.37806582 15144 ...Continue Reading

[TLELIST] Current TLEs

November 18th 2024 PDT

HST 1 20580U 90037B 24322.90569541 .00008116 00000-0 34538-3 0 9998 2 20580 28.4700 32.8909 0001696 268.8069 91.2330 15.21149232700690 ISS (ZARYA) 1 25544U 98067A 24323.23641665 .00015918 00000-0 28694-3 0 9993 2 25544 51.6394 272.1811 0007335 231.4765 128.5566 15.49919217482441 CXO 1 25867U 99040B 24323.87927738 .00000571 00000-0 00000-0 0 9998 2 25867 44.7074 141.5385 8725615 304.2436 359.8848 0.37806582 15144 ...Continue Reading

[TLELIST] Current TLEs

November 17th 2024 PDT

HST 1 20580U 90037B 24321.65912821 .00009845 00000-0 42102-3 0 9998 2 20580 28.4697 41.2857 0001752 252.6034 107.4367 15.21129706700501 ISS (ZARYA) 1 25544U 98067A 24322.09401066 .00019103 00000-0 34302-3 0 9998 2 25544 51.6410 277.8367 0007583 226.0535 235.5529 15.49882713482266 CXO 1 25867U 99040B 24323.87927738 .00000571 00000-0 00000-0 0 9998 2 25867 44.7074 141.5385 8725615 304.2436 359.8848 0.37806582 15144 ...Continue Reading

[TLELIST] Current TLEs

November 17th 2024 PDT

HST 1 20580U 90037B 24321.65912821 .00009845 00000-0 42102-3 0 9998 2 20580 28.4697 41.2857 0001752 252.6034 107.4367 15.21129706700501 ISS (ZARYA) 1 25544U 98067A 24322.09401066 .00019103 00000-0 34302-3 0 9998 2 25544 51.6410 277.8367 0007583 226.0535 235.5529 15.49882713482266 CXO 1 25867U 99040B 24323.87927738 .00000571 00000-0 00000-0 0 9998 2 25867 44.7074 141.5385 8725615 304.2436 359.8848 0.37806582 15144 ...Continue Reading

[TLELIST] Current TLEs

November 17th 2024 PDT

HST 1 20580U 90037B 24321.65912821 .00009845 00000-0 42102-3 0 9998 2 20580 28.4697 41.2857 0001752 252.6034 107.4367 15.21129706700501 ISS (ZARYA) 1 25544U 98067A 24322.09401066 .00019103 00000-0 34302-3 0 9998 2 25544 51.6410 277.8367 0007583 226.0535 235.5529 15.49882713482266 CXO 1 25867U 99040B 24323.87927738 .00000571 00000-0 00000-0 0 9998 2 25867 44.7074 141.5385 8725615 304.2436 359.8848 0.37806582 15144 ...Continue Reading

[TLELIST] Current TLEs

November 16th 2024 PDT

HST 1 20580U 90037B 24320.54376403 .00011204 00000-0 48059-3 0 9994 2 20580 28.4693 48.7973 0001842 239.9040 120.1370 15.21107916700070 ISS (ZARYA) 1 25544U 98067A 24321.38465264 .00018621 00000-0 33492-3 0 9992 2 25544 51.6413 281.3529 0007607 223.0065 238.0981 15.49853668482156 CXO 1 25867U 99040B 24323.87927738 .00000571 00000-0 00000+0 0 9997 2 25867 44.7074 141.5385 8725615 304.2436 359.8848 0.37806582 26304 ...Continue Reading
  • This mailing list is a public mailing list - anyone may join or leave, at any time.
  • This mailing list is announce-only.

International Space Station (ISS) / Hubble Space Telescope (HST) / Chandra X-Ray Observatory Orbital Data via EMAIL

Privacy Policy:

Private list